Volver al catálogo

NIMBUS 2 DEB

LostSSO
NORAD 42438·DEBRIS·🇺🇸 United States

Lanzado May 15, 1966 desde Vandenberg Space Force Base

Loading…

Próximos Pases (próximas 24 horas)

TLE

ObsoletoSource: Space-Track

Época: Oct 22, 2016, 11:39 UTC

1 42438U 66040BR  16296.48595034  .00001068  00000-0  21961-2 0  9995
2 42438 100.3461  33.0808 0048242 287.6607  71.9253 13.34986491 51265

Sigue NIMBUS 2 DEB en tiempo real con AllMySat

Download on the App Store